Total_Precipitation_Accumulation
0.00 0.00 0.00 0.00 0.00 0.00 0.00 0.00 0.00 0.00 0.00 0.00 0.00 0.00 0.00 0.00 0.08 0.30 0.00 0.00 0.00 0.00 0.00 0.00 0.00 0.00 0.00 0.00 0.00 0.00 0.00 0.00 0.01 0.01 0.00 0.01 0.02 0.05 0.04 0.07 0.10 0.12 0.11 0.03 0.06 0.04 0.06 0.09 0.05
0.00 0.00 0.00 0.00 0.00 0.00 0.00 0.00 0.00 0.00 0.00 0.00 0.00 0.00 0.00 0.00 0.00 0.00 0.00 0.00 0.00 0.00 0.00 0.00 0.00 0.00 0.00 0.00 0.01 0.01 0.00 0.00 0.00 0.00 0.00 0.00 0.00 0.00 0.01 0.03 0.04 0.05 0.03 0.01 0.01 0.02 0.01 0.02 0.11
0.00 0.00 0.00 0.00 0.00 0.00 0.00 0.00 0.00 0.00 0.00 0.00 0.00 0.00 0.00 0.00 0.00 0.00 0.00 0.00 0.00 0.00 0.00 0.00 0.00 0.00 0.00 0.00 0.00 0.00 0.00 0.00 0.00 0.00 0.00 0.00 0.00 0.00 0.02 0.06 0.08 0.09 0.04 0.05 0.04 0.03 0.00 0.03 0.36
0.00 0.00 0.00 0.00 0.00 0.00 0.00 0.00 0.00 0.00 0.00 0.00 0.00 0.00 0.00 0.00 0.00 0.00 0.00 0.00 0.00 0.00 0.00 0.00 0.00 0.00 0.00 0.00 0.00 0.00 0.00 0.00 0.00 0.00 0.00 0.00 0.00 0.01 0.01 0.01 0.01 0.11 0.17 0.17 0.16 0.14 0.04 0.05 0.46
0.00 0.02 0.00 0.00 0.00 0.00 0.00 0.00 0.00 0.00 0.00 0.00 0.00 0.00 0.00 0.00 0.00 0.00 0.00 0.00 0.00 0.00 0.00 0.00 0.00 0.03 0.03 0.01 0.00 0.00 0.00 0.00 0.00 0.00 0.00 0.00 0.01 0.01 0.00 0.00 0.01 0.05 0.21 0.31 0.18 0.15 0.12 0.08 0.49
0.02 0.04 0.02 0.00 0.00 0.00 0.00 0.00 0.00 0.00 0.00 0.00 0.00 0.00 0.00 0.00 0.00 0.00 0.00 0.00 0.00 0.00 0.00 0.00 0.00 0.00 0.01 0.01 0.00 0.00 0.00 0.00 0.00 0.00 0.00 0.02 0.02 0.01 0.01 0.00 0.05 0.03 0.13 0.16 0.10 0.17 0.17 0.12 0.27
0.02 0.10 0.03 0.00 0.00 0.00 0.00 0.00 0.00 0.00 0.00 0.00 0.00 0.00 0.00 0.00 0.00 0.00 0.00 0.00 0.00 0.01 0.00 0.00 0.00 0.00 0.00 0.00 0.01 0.00 0.00 0.00 0.00 0.00 0.00 0.00 0.01 0.01 0.01 0.00 0.01 0.04 0.09 0.14 0.18 0.14 0.20 0.13 0.14
0.01 0.00 0.00 0.00 0.00 0.00 0.00 0.00 0.00 0.00 0.00 0.00 0.00 0.00 0.00 0.00 0.00 0.00 0.00 0.00 0.00 0.00 0.01 0.01 0.01 0.00 0.00 0.01 0.02 0.03 0.04 0.01 0.00 0.00 0.00 0.00 0.01 0.00 0.00 0.00 0.01 0.04 0.06 0.11 0.14 0.20 0.17 0.15 0.14
0.01 0.00 0.00 0.00 0.00 0.00 0.00 0.00 0.00 0.00 0.00 0.00 0.00 0.00 0.00 0.00 0.00 0.00 0.00 0.00 0.00 0.00 0.01 0.01 0.09 0.11 0.13 0.15 0.10 0.03 0.06 0.01 0.00 0.01 0.00 0.00 0.00 0.00 0.00 0.02 0.03 0.02 0.02 0.06 0.13 0.17 0.18 0.15 0.17
0.01 0.03 0.00 0.00 0.00 0.00 0.00 0.00 0.00 0.01 0.02 0.01 0.00 0.00 0.00 0.00 0.00 0.00 0.00 0.00 0.00 0.00 0.01 0.00 0.02 0.14 0.21 0.18 0.30 0.20 0.15 0.09 0.04 0.05 0.17 0.01 0.02 0.02 0.02 0.05 0.04 0.00 0.00 0.01 0.07 0.16 0.15 0.07 0.02
0.00 0.04 0.00 0.00 0.00 0.00 0.00 0.00 0.00 0.00 0.11 0.05 0.00 0.00 0.00 0.00 0.00 0.00 0.00 0.00 0.00 0.00 0.00 0.00 0.00 0.03 0.09 0.17 0.29 0.35 0.30 0.27 0.21 0.23 0.20 0.17 0.20 0.09 0.00 0.09 0.10 0.02 0.04 0.03 0.10 0.09 0.07 0.09 0.06
0.00 0.00 0.00 0.00 0.00 0.00 0.00 0.00 0.00 0.00 0.00 0.00 0.00 0.00 0.00 0.00 0.00 0.00 0.00 0.00 0.00 0.00 0.00 0.00 0.00 0.06 0.07 0.28 0.23 0.24 0.20 0.26 0.26 0.46 0.54 0.42 0.32 0.13 0.05 0.07 0.23 0.23 0.08 0.16 0.16 0.17 0.14 0.11 0.07
0.00 0.00 0.00 0.00 0.00 0.00 0.00 0.00 0.00 0.00 0.00 0.00 0.00 0.00 0.00 0.00 0.00 0.00 0.00 0.00 0.00 0.00 0.00 0.00 0.00 0.07 0.15 0.17 0.12 0.13 0.03 0.08 0.16 0.24 0.26 0.23 0.35 0.24 0.10 0.07 0.11 0.15 0.19 0.14 0.27 0.26 0.30 0.34 0.17
0.00 0.00 0.00 0.00 0.00 0.00 0.00 0.00 0.00 0.00 0.00 0.00 0.00 0.00 0.00 0.00 0.00 0.00 0.00 0.00 0.00 0.00 0.00 0.00 0.00 0.05 0.09 0.13 0.15 0.11 0.09 0.17 0.05 0.14 0.16 0.22 0.23 0.44 0.52 0.17 0.12 0.17 0.11 0.21 0.52 0.72 0.72 0.24 0.21
0.00 0.00 0.00 0.00 0.00 0.00 0.00 0.01 0.00 0.00 0.00 0.00 0.00 0.00 0.00 0.00 0.00 0.00 0.00 0.00 0.00 0.00 0.00 0.02 0.00 0.01 0.06 0.12 0.08 0.04 0.03 0.01 0.01 0.02 0.06 0.10 0.10 0.16 0.19 0.23 0.16 0.16 0.28 0.35 0.62 1.52 0.57 0.29 0.20
0.00 0.00 0.00 0.00 0.00 0.00 0.00 0.05 0.00 0.00 0.00 0.00 0.00 0.00 0.00 0.00 0.00 0.00 0.02 0.02 0.03 0.02 0.00 0.01 0.00 0.00 0.01 0.07 0.05 0.02 0.00 0.03 0.08 0.05 0.01 0.05 0.06 0.08 0.08 0.09 0.05 0.09 0.05 0.01 0.06 0.24 0.24 0.43 0.39
0.00 0.00 0.00 0.00 0.00 0.00 0.00 0.00 0.00 0.00 0.00 0.00 0.00 0.00 0.00 0.00 0.00 0.00 0.00 0.00 0.01 0.01 0.02 0.03 0.02 0.14 0.23 0.23 0.16 0.03 0.01 0.00 0.01 0.02 0.00 0.07 0.18 0.19 0.22 0.06 0.07 0.10 0.02 0.00 0.03 0.09 0.12 0.34 0.46
0.00 0.00 0.00 0.00 0.00 0.00 0.00 0.00 0.00 0.00 0.00 0.00 0.00 0.00 0.00 0.00 0.01 0.00 0.00 0.00 0.00 0.01 0.01 0.01 0.38 0.90 1.71 1.01 0.53 0.41 0.15 0.07 0.04 0.02 0.03 0.13 0.23 0.24 0.27 0.19 0.14 0.20 0.18 0.05 0.03 0.08 0.11 0.12 0.26
0.00 0.00 0.00 0.00 0.00 0.00 0.00 0.00 0.00 0.00 0.00 0.00 0.00 0.00 0.00 0.01 0.01 0.00 0.00 0.00 0.00 0.01 0.02 0.42 1.24 1.75 1.92 2.04 0.85 0.50 0.33 0.17 0.20 0.10 0.12 0.16 0.17 0.23 0.32 0.33 0.33 0.33 0.29 0.19 0.27 0.31 0.43 0.43 0.26
0.00 0.00 0.00 0.00 0.00 0.00 0.00 0.00 0.00 0.00 0.00 0.00 0.00 0.00 0.00 0.01 0.01 0.00 0.00 0.01 0.03 0.01 0.01 0.33 0.31 0.35 0.46 0.75 0.84 1.64 0.35 0.16 0.14 0.20 0.13 0.11 0.11 0.20 0.32 0.38 0.49 0.45 0.45 0.36 0.45 0.61 0.39 0.26 0.11
0.00 0.00 0.00 0.00 0.00 0.00 0.00 0.00 0.00 0.00 0.00 0.00 0.00 0.00 0.00 0.01 0.00 0.00 0.00 0.00 0.00 0.00 0.01 0.06 0.07 0.06 0.14 0.23 0.44 0.66 0.30 0.17 0.08 0.05 0.02 0.02 0.01 0.01 0.06 0.12 0.23 0.46 0.47 0.33 0.55 0.77 0.46 0.32 0.22
0.00 0.00 0.00 0.00 0.00 0.00 0.00 0.00 0.00 0.00 0.00 0.00 0.00 0.00 0.00 0.00 0.00 0.00 0.00 0.00 0.00 0.00 0.00 0.01 0.02 0.05 0.17 0.22 0.60 0.31 0.15 0.06 0.02 0.00 0.00 0.00 0.00 0.00 0.03 0.06 0.10 0.19 0.42 0.34 0.32 0.52 0.45 0.38 0.28
0.00 0.00 0.00 0.00 0.00 0.00 0.00 0.00 0.00 0.00 0.00 0.00 0.00 0.00 0.00 0.00 0.00 0.01 0.00 0.00 0.00 0.00 0.00 0.00 0.00 0.02 0.08 0.21 0.21 0.08 0.01 0.00 0.00 0.00 0.00 0.00 0.01 0.02 0.08 0.18 0.18 0.21 0.30 0.29 0.36 0.33 0.29 0.19 0.14
0.00 0.00 0.00 0.00 0.00 0.00 0.00 0.00 0.00 0.00 0.00 0.00 0.00 0.00 0.00 0.00 0.00 0.00 0.00 0.00 0.00 0.00 0.00 0.00 0.00 0.03 0.02 0.02 0.00 0.00 0.00 0.00 0.00 0.00 0.00 0.00 0.00 0.04 0.22 0.23 0.31 0.35 0.36 0.27 0.29 0.34 0.45 0.36 0.22
0.00 0.00 0.00 0.00 0.00 0.00 0.00 0.00 0.00 0.00 0.00 0.00 0.00 0.00 0.00 0.00 0.00 0.00 0.00 0.00 0.00 0.00 0.00 0.00 0.01 0.04 0.05 0.01 0.00 0.00 0.00 0.00 0.00 0.00 0.00 0.00 0.00 0.06 0.18 0.21 0.27 0.38 0.44 0.42 0.52 0.55 0.47 0.42 0.26
0.00 0.00 0.00 0.00 0.00 0.00 0.00 0.00 0.00 0.00 0.00 0.00 0.00 0.00 0.00 0.00 0.00 0.00 0.00 0.00 0.00 0.00 0.00 0.00 0.00 0.04 0.03 0.00 0.00 0.00 0.00 0.00 0.00 0.00 0.00 0.00 0.01 0.03 0.13 0.17 0.28 0.19 0.21 0.29 0.39 0.45 0.45 0.62 0.39
0.00 0.00 0.00 0.00 0.00 0.00 0.00 0.00 0.00 0.00 0.00 0.00 0.00 0.00 0.00 0.00 0.00 0.00 0.00 0.00 0.00 0.00 0.00 0.00 0.01 0.02 0.00 0.00 0.00 0.00 0.00 0.00 0.00 0.00 0.00 0.00 0.01 0.01 0.03 0.12 0.27 0.34 0.19 0.14 0.34 0.43 0.46 0.52 0.40
0.00 0.00 0.00 0.00 0.00 0.00 0.00 0.00 0.00 0.01 0.01 0.00 0.00 0.00 0.00 0.00 0.00 0.00 0.00 0.00 0.00 0.00 0.00 0.03 0.03 0.03 0.01 0.00 0.00 0.00 0.00 0.00 0.00 0.00 0.01 0.00 0.01 0.01 0.01 0.02 0.13 0.41 0.50 0.49 0.52 0.69 0.71 0.63 0.45
0.00 0.00 0.00 0.00 0.00 0.00 0.00 0.00 0.00 0.02 0.00 0.00 0.00 0.00 0.00 0.00 0.00 0.00 0.00 0.00 0.02 0.05 0.04 0.01 0.01 0.01 0.00 0.00 0.00 0.00 0.00 0.00 0.00 0.00 0.01 0.00 0.00 0.01 0.00 0.01 0.04 0.15 0.22 0.36 0.62 0.69 0.59 0.49 0.50
0.00 0.00 0.00 0.00 0.00 0.00 0.00 0.00 0.00 0.00 0.00 0.00 0.00 0.00 0.00 0.00 0.00 0.00 0.00 0.00 0.02 0.08 0.02 0.00 0.00 0.00 0.00 0.00 0.00 0.00 0.00 0.00 0.00 0.00 0.00 0.01 0.00 0.00 0.00 0.01 0.02 0.02 0.05 0.06 0.05 0.07 0.05 0.06 0.08